| time (UTC) | temp F | wind direction | speed MPH | gust MPH | rain 1hr in | rain 24hr in | rain mn in | humidity % | barometer mb |
| 20260505083046 | 62 | 0.0 | 0.0 | 0.00 | 0.00 | 0.00 | 41 | 1006.6 | |
| 20260505081552 | 63 | 0.0 | 0.0 | 0.00 | 0.00 | 0.00 | 40 | 1006.6 | |
| 20260505080042 | 63 | 2.0 | 4.0 | 0.00 | 0.00 | 0.00 | 41 | 1006.5 | |
| 20260505074538 | 65 | 0.0 | 0.0 | 0.00 | 0.00 | 0.00 | 37 | 1006.3 | |
| 20260505073030 | 65 | 0.0 | 3.0 | 0.00 | 0.00 | 0.00 | 37 | 1006.2 | |
| 20260505071531 | 65 | 2.0 | 6.0 | 0.00 | 0.00 | 0.00 | 37 | 1006.0 | |
| 20260505070027 | 67 | 0.0 | 0.0 | 0.00 | 0.00 | 0.00 | 35 | 1006.0 | |
| 20260505064526 | 69 | 0.0 | 3.0 | 0.00 | 0.00 | 0.00 | 33 | 1005.8 | |
| 20260505063034 | 69 | 0.0 | 0.0 | 0.00 | 0.00 | 0.00 | 33 | 1005.7 | |
| 20260505061530 | 69 | 0.0 | 0.0 | 0.00 | 0.00 | 0.00 | 32 | 1005.6 | |
| 20260505060023 | 70 | 0.0 | 0.0 | 0.00 | 0.00 | 0.00 | 31 | 1005.5 | |
| 20260505054527 | 71 | 0.0 | 0.0 | 0.00 | 0.00 | 0.00 | 31 | 1005.3 | |
| 20260505053022 | 72 | 0.0 | 7.0 | 0.00 | 0.00 | 0.00 | 30 | 1005.4 | |
| 20260505051522 | 73 | 2.0 | 8.0 | 0.00 | 0.00 | 0.00 | 29 | 1005.2 | |
| 20260505041519 | 75 | 4.0 | 8.0 | 0.00 | 0.00 | 0.00 | 27 | 1004.5 | |
| 20260505040018 | 76 | 4.0 | 9.0 | 0.00 | 0.00 | 0.00 | 26 | 1004.4 | |
| 20260505034520 | 76 | 4.0 | 10.0 | 0.00 | 0.00 | 0.00 | 26 | 1004.2 | |
| 20260505033030 | 77 | 4.0 | 12.0 | 0.00 | 0.00 | 0.00 | 26 | 1003.9 | |
| 20260505031519 | 77 | 9.0 | 13.0 | 0.00 | 0.00 | 0.00 | 26 | 1003.8 | |
| 20260505030016 | 78 | 4.0 | 10.0 | 0.00 | 0.00 | 0.00 | 26 | 1003.6 | |
| 20260505024535 | 78 | 7.0 | 11.0 | 0.00 | 0.00 | 0.00 | 26 | 1003.5 | |
| 20260505023015 | 78 | 7.0 | 10.0 | 0.00 | 0.00 | 0.00 | 26 | 1003.4 | |
| 20260505021528 | 78 | 5.0 | 8.0 | 0.00 | 0.00 | 0.00 | 26 | 1003.3 | |
| 20260505020013 | 79 | 5.0 | 9.0 | 0.00 | 0.00 | 0.00 | 26 | 1003.2 | |
| 20260505014514 | 80 | 8.0 | 14.0 | 0.00 | 0.00 | 0.00 | 25 | 1003.3 | |
| 20260505013011 | 80 | 9.0 | 15.0 | 0.00 | 0.00 | 0.00 | 24 | 1003.3 | |
| 20260505011508 | 81 | 8.0 | 16.0 | 0.00 | 0.00 | 0.00 | 24 | 1003.4 | |
| 20260505010003 | 81 | 9.0 | 15.0 | 0.00 | 0.00 | 0.00 | 24 | 1003.3 | |
| 20260505004605 | 81 | 11.0 | 18.0 | 0.00 | 0.00 | 0.00 | 23 | 1003.3 | |
| 20260505003056 | 81 | 10.0 | 14.0 | 0.00 | 0.00 | 0.00 | 23 | 1003.3 | |
| 20260505001553 | 81 | 10.0 | 17.0 | 0.00 | 0.00 | 0.00 | 24 | 1003.4 | |
| 20260505000051 | 81 | 13.0 | 19.0 | 0.00 | 0.00 | 0.00 | 24 | 1003.4 | |
| 20260504234550 | 81 | 11.0 | 19.0 | 0.00 | 0.00 | 0.00 | 25 | 1003.4 | |
| 20260504233058 | 81 | 17.0 | 23.0 | 0.00 | 0.00 | 0.00 | 23 | 1003.4 | |
| 20260504231546 | 81 | 12.0 | 18.0 | 0.00 | 0.00 | 0.00 | 24 | 1003.6 | |
| 20260504230045 | 81 | 9.0 | 17.0 | 0.00 | 0.00 | 0.00 | 24 | 1003.8 | |
| 20260504224543 | 81 | 9.0 | 21.0 | 0.00 | 0.00 | 0.00 | 23 | 1003.8 | |
| 20260504223046 | 81 | 14.0 | 19.0 | 0.00 | 0.00 | 0.00 | 23 | 1003.9 | |
| 20260504221547 | 81 | 6.0 | 19.0 | 0.00 | 0.00 | 0.00 | 24 | 1004.0 | |
| 20260504220051 | 80 | 7.0 | 14.0 | 0.00 | 0.00 | 0.00 | 24 | 1004.2 | |
| 20260504214537 | 81 | 8.0 | 14.0 | 0.00 | 0.00 | 0.00 | 24 | 1004.2 | |
| 20260504213034 | 80 | 7.0 | 11.0 | 0.00 | 0.00 | 0.00 | 24 | 1004.4 | |
| 20260504211532 | 80 | 8.0 | 13.0 | 0.00 | 0.00 | 0.00 | 24 | 1004.5 | |
| 20260504210031 | 80 | 9.0 | 14.0 | 0.00 | 0.00 | 0.00 | 24 | 1004.6 | |
| 20260504204541 | 80 | 3.0 | 15.0 | 0.00 | 0.00 | 0.00 | 25 | 1004.7 | |
| 20260504203027 | 79 | 6.0 | 12.0 | 0.00 | 0.00 | 0.00 | 24 | 1004.9 | |
| 20260504201525 | 79 | 0.0 | 18.0 | 0.00 | 0.00 | 0.00 | 25 | 1005.1 | |
| 20260504200024 | 79 | 14.0 | 17.0 | 0.00 | 0.00 | 0.00 | 25 | 1005.0 | |
| 20260504194524 | 78 | 14.0 | 20.0 | 0.00 | 0.00 | 0.00 | 24 | 1005.2 | |
| 20260504193021 | 78 | 14.0 | 18.0 | 0.00 | 0.00 | 0.00 | 25 | 1005.4 | |
| 20260504191519 | 78 | 15.0 | 22.0 | 0.00 | 0.00 | 0.00 | 24 | 1005.6 | |
| 20260504190018 | 78 | 5.0 | 11.0 | 0.00 | 0.00 | 0.00 | 26 | 1006.0 | |
| 20260504184517 | 76 | 4.0 | 12.0 | 0.00 | 0.00 | 0.00 | 28 | 1006.1 | |
| 20260504183010 | 76 | 5.0 | 11.0 | 0.00 | 0.00 | 0.00 | 28 | 1006.2 | |
| 20260504181507 | 75 | 4.0 | 10.0 | 0.00 | 0.00 | 0.00 | 29 | 1006.4 | |
| 20260504180006 | 74 | 2.0 | 7.0 | 0.00 | 0.00 | 0.00 | 27 | 1006.5 | |
| 20260504174504 | 73 | 2.0 | 7.0 | 0.00 | 0.00 | 0.00 | 31 | 1006.7 | |
| 20260504173101 | 72 | 5.0 | 8.0 | 0.00 | 0.00 | 0.00 | 32 | 1006.7 | |
| 20260504171558 | 71 | 5.0 | 7.0 | 0.00 | 0.00 | 0.00 | 33 | 1006.8 |